23 de mayo de 2022

Hora Código Tiempo Temp. Visibilidad Nubes Viento METAR/SPECI
06:00
V
26 °C 10 km+ - 110°   110° 5 kt METAR AYPY 222000Z 11005KT 9999 FEW030 26/24 Q1008 RMK/LITG OBS TO THE N
05:00
V
26 °C 10 km+ - Var   Var 3 kt METAR AYPY 221900Z VRB03KT 9999 SCT050 26/25 Q1008
03:00
V
27 °C 10 km+ - 140°   140° 15 kt METAR AYPY 221700Z 14015KT 9999 FEW015 SCT060 27/25 Q1008
02:00
V
27 °C 10 km+ - 140°   140° 15 kt METAR AYPY 221600Z 14015KT 9999 SCT070 27/24 Q1008
00:00
V
28 °C 10 km+ - 140°   140° 10 kt METAR AYPY 221400Z 14010KT 9999 SCT050 28/25 Q1009

22 de mayo de 2022

Hora Código Tiempo Temp. Visibilidad Nubes Viento METAR/SPECI
23:00
V
27 °C 10 km+ - 160°   160° 10 kt METAR AYPY 221300Z 16010KT 9999 SCT050 27/25 Q1009
22:00
V
28 °C 10 km+ - 160°   160° 15 kt METAR AYPY 221200Z 16015KT 9999 SCT050 28/25 Q1009
21:00
V
28 °C 10 km+ - 150°   150° 5 kt METAR AYPY 221100Z 15005KT 9999 SCT050 28/25 Q1009=
20:00
V
28 °C 10 km+ - 150°   150° 15 kt METAR AYPY 221000Z 15015KT 9999 FEW020 SCT050 28/25 Q1009
19:00
V
28 °C 10 km+ - 160°   160° 15 kt METAR AYPY 220900Z 16015KT 9999 FEW025 SCT050 28/26 Q1008
18:00
V
29 °C 10 km+ - 150°   150° 10 20 kt METAR AYPY 220800Z 15010G20KT 9999 FEW025 SCT050 29/25 Q1007
17:00
V
30 °C 10 km+ - 150°   150° 10 20 kt METAR AYPY 220700Z 15010G20KT 9999 FUHZ SCT030 SCT050 30/25 Q1006
16:00
V
31 °C 10 km+ - 160°   160° 10 20 kt METAR AYPY 220600Z 16010G20KT 9999 FUHZ SCT030 31/25 Q1006
15:00
V
32 °C 10 km+ - 160°   160° 10 20 kt METAR AYPY 220500Z 16010G20KT 9999 HZ SCT030 32/25 Q1006
14:00
V
32 °C 10 km+ - 160°   160° 15 kt METAR AYPY 220400Z 16015KT 9999 HZ SCT030 32/25 Q1006=
13:00
V
32 °C 10 km+ - 160°   160° 15 kt METAR AYPY 220300Z 16015KT 9999 HZ SCT030 32/25 Q1007
12:00
V
32 °C 10 km+ - 180°   180° 13 kt METAR AYPY 220200Z 18013KT 9999 HZ SCT030 32/24 Q1008
11:00
V
32 °C 10 km+ - 150°   150° 10 kt METAR AYPY 220100Z 15010KT 9999 HZ SCT030 32/24 Q1009
10:00
V
31 °C 10 km+ - 350°   350° 5 kt METAR AYPY 220000Z 35005KT 9999 HZ SCT030 31/24 Q1009
09:00
V
30 °C 10 km+ - 350°   350° 5 kt METAR AYPY 212300Z 35005KT 9999 HZ FEW030 30/24 Q1010
08:00
V
28 °C 10 km+ - Var   Var 3 kt METAR AYPY 212200Z VRB03KT 9999 HZ FEW030 28/24 Q1009=
07:00
V
25 °C 10 km+ - Var   Var 3 kt METAR AYPY 212100Z VRB03KT 9999 HZ FEW040 25/24 Q1009
06:00
V
24 °C 10 km+ - Var   Var 2 kt METAR AYPY 212000Z VRB02KT 9999 FEW050 24/23 Q1008
05:00
V
24 °C 10 km+ - Var   Var 3 kt METAR AYPY 211900Z VRB03KT 9999 FEW050 24/23 Q1008
04:00
V
24 °C 10 km+ - Var   Var 3 kt METAR AYPY 211800Z VRB03KT 9999 SCT050 24/23 Q1008
03:00
V
24 °C 10 km+ - Var   Var 2 kt METAR AYPY 211700Z VRB02KT 9999 SCT050 24/24 Q1008
02:00
V
25 °C 10 km+ - Var   Var 2 kt METAR AYPY 211600Z VRB02KT 9999 SCT050 25/24 Q1008
01:00
V
25 °C 10 km+ - Var   Var 3 kt METAR AYPY 211500Z VRB03KT 9999 SCT050 25/24 Q1009
00:00
V
26 °C 10 km+ - 130°   130° 4 kt METAR AYPY 211400Z 13004KT 9999 SCT040 26/24 Q1009

21 de mayo de 2022

Hora Código Tiempo Temp. Visibilidad Nubes Viento METAR/SPECI
23:00
V
26 °C 10 km+ - 130°   130° 6 kt METAR AYPY 211300Z 13006KT 9999 SCT040 26/24 Q1009
22:00
V
27 °C 10 km+ - 140°   140° 13 kt METAR AYPY 211200Z 14013KT 9999 SCT040 27/24 Q1010
21:00
V
27 °C 10 km+ - 150°   150° 15 kt METAR AYPY 211100Z 15015KT 9999 SCT040 27/24 Q1010
20:00
V
28 °C 10 km+ - 150°   150° 15 kt METAR AYPY 211000Z 15015KT 9999 SCT040 28/25 Q1008
19:00
V
28 °C 10 km+ - 160°   160° 15 kt METAR AYPY 210900Z 16015KT 9999 SCT040 28/25 Q1008
18:00
V
28 °C 10 km+ - 160°   160° 10 20 kt METAR AYPY 210800Z 16010G20KT 9999 SCT040 28/24 Q1008
17:00
V
29 °C 10 km+ - 160°   160° 10 20 kt METAR AYPY 210700Z 16010G20KT 9999 SCT030 29/24 Q1007=
16:00
V
30 °C 10 km+ - 150°   150° 10 20 kt METAR AYPY 210600Z 15010G20KT 9999 HZ SCT030 30/25 Q1007
15:00
V
31 °C 10 km+ - 160°   160° 10 20 kt METAR AYPY 210500Z 16010G20KT 9999 HZ SCT025 31/25 Q1007=
14:00
V
32 °C 10 km+ - 170°   170° 15 kt METAR AYPY 210400Z 17015KT 9999 SCT030 32/24 Q1008
13:00
V
31 °C 10 km+ - 190°   190° 15 kt METAR AYPY 210300Z 19015KT 9999 SCT030 31/24 Q1008
12:00
V
32 °C 10 km+ - 190°   190° 13 kt METAR AYPY 210200Z 19013KT 9999 SCT035 32/24 Q1009
11:00
V
32 °C 10 km+ - 140°   140° 10 15 kt METAR AYPY 210100Z 14010G15KT 9999 SCT040 32/23 Q1010
10:00
V
31 °C 10 km+ - 160°   160° 5 10 kt METAR AYPY 210000Z 16005G10KT 9999 SCT080 31/23 Q1011
09:00
V
30 °C 10 km+ - 160°   160° 5 kt METAR AYPY 202300Z 16005KT 9999 FEW050 30/23 Q1011
08:00
V
28 °C 10 km+ - 280°   280° 3 kt METAR AYPY 202200Z 28003KT 9999 FEW030 28/23 Q1011
07:00
V
25 °C 10 km+ - Var   000° 0 kt METAR AYPY 202100Z 00000KT 9999 SCT050 25/24 Q1010
06:00
V
24 °C 10 km+ - Var   Var 3 kt METAR AYPY 202000Z VRB03KT 9999 SCT080 24/23 Q1010
05:00
V
24 °C 10 km+ - Var   Var 3 kt METAR AYPY 201900Z VRB03KT 9999 FEW080 24/23 Q1009
04:00
V
24 °C 10 km+ - Var   Var 3 kt METAR AYPY 201800Z VRB03KT 9999 FEW080 24/23 Q1009
03:00
V
24 °C 10 km+ - Var   Var 3 kt METAR AYPY 201700Z VRB03KT 9999 FEW060 24/23 Q1009
02:00
V
25 °C 10 km+ - Var   Var 3 kt METAR AYPY 201600Z VRB03KT 9999 SCT050 25/23 Q1010
01:00
V
25 °C 10 km+ - 150°   150° 5 kt METAR AYPY 201500Z 15005KT 9999 SCT060 25/23 Q1010
Datos más antiguos

Descarga nuestra aplicación

Acceso fácil a todo el tiempo de la aviación en tu teléfono móvil y tableta.
Con muchas funciones no disponibles en el sitio web, como la compatibilidad sin conexión y una lista personal de aeropuertos.

Nosotros y terceros seguimos tu comportamiento en Internet en nuestro sitio web con cookies. Si continúas, asumimos que estás de acuerdo con nuestra política de cookies. Más información